This demonstration page uses our WeatherBlox Daily Observations layout. Learn more.

Left ArrowRight Arrow

Hourly Observations for December 2, 2015

Temp ( °F °C ) Dew Point ( °F °C ) Humidity (%) Winds ( mph kmh ) Pressure ( in mb ) Visibility ( mi km ) Precip ( " mm )
12:53 am 00:53 Clear 38 3.3 37 2.8 97 97 Calm 29.92 1013 9 14 0.00 0.00
1:53 am 01:53 Clear with Mist and Fog 37 2.8 36 2.2 96 96 Calm 29.90 1012 6 10 0.00 0.00
2:53 am 02:53 Clear with Mist and Fog 37 2.8 36 2.2 96 96 Calm 29.88 1012 6 10 0.00 0.00
3:04 am 03:04 Clear with Mist and Fog 36 2.2 35 1.7 97 97 Calm 29.91 1013 2 3 0.00 0.00
3:13 am 03:13 Clear with Mist and Fog 36 2.2 36 2.2 100 100 Calm 29.91 1013 3 5 0.00 0.00
3:45 am 03:45 Clear with Mist and Fog 36 2.2 35 1.7 97 97 Calm 29.88 1012 2 3 0.00 0.00
3:53 am 03:53 Clear with Mist and Fog 35 1.7 35 1.7 100 100 Calm 29.87 1012 2 3 0.00 0.00
4:07 am 04:07 Clear with Mist and Fog 35 1.7 34 1.1 96 96 Calm 29.88 1012 2 2 0.00 0.00
4:10 am 04:10 Clear with Mist and Fog 35 1.7 35 1.7 100 100 Calm 29.88 1012 2 3 0.00 0.00
4:17 am 04:17 Clear with Mist and Fog 35 1.7 35 1.7 100 100 Calm 29.88 1012 6 10 0.00 0.00
4:23 am 04:23 Mostly Clear with Mist and Fog 35 1.7 35 1.7 100 100 Calm 29.88 1012 3 4 0.00 0.00
4:30 am 04:30 Mostly Cloudy with Mist and Fog 35 1.7 34 1.1 96 96 Calm 29.88 1012 1 2 0.00 0.00
4:37 am 04:37 Mostly Cloudy with Fog 35 1.7 34 1.1 96 96 Calm 29.88 1012 1 1 0.00 0.00
4:53 am 04:53 Mostly Cloudy with Fog 35 1.7 34 1.1 96 96 Calm 29.85 1011 1 1 0.00 0.00
5:35 am 05:35 Partly Cloudy with Mist and Fog 34 1.1 34 1.1 100 100 Calm 29.85 1011 1 2 0.00 0.00
5:39 am 05:39 Partly Cloudy with Mist and Fog 34 1.1 34 1.1 100 100 Calm 29.85 1011 2 3 0.00 0.00
5:48 am 05:48 Mostly Clear with Mist and Fog 34 1 34 1 100 100 Calm 29.85 1011 5 8 0.00 0.00
5:53 am 05:53 Clear with Mist and Fog 35 1.7 34 1.1 96 96 Calm 29.85 1011 6 10 0.00 0.00
6:17 am 06:17 Mostly Cloudy with Mist and Fog 36 2.2 35 1.7 97 97 Calm 29.88 1012 6 10 0.00 0.00
6:43 am 06:43 Cloudy with Mist and Fog 36 2.2 35 1.7 97 97 W 3 6 29.88 1012 2 3 0.00 0.00
6:45 am 06:45 Cloudy with Mist and Fog 36 2.2 35 1.7 97 97 W 3 6 29.88 1012 1 2 0.00 0.00
6:48 am 06:48 Cloudy with Mist and Fog 36 2 36 2 100 100 Calm 29.88 1012 1 1 0.00 0.00
6:53 am 06:53 Cloudy with Fog 36 2.2 36 2.2 100 100 Calm 29.86 1011 1 1 0.00 0.00
7:53 am 07:53 Mostly Cloudy with Fog 34 1.1 34 1.1 100 100 Calm 29.85 1011 5 8 0.00 0.00
8:53 am 08:53 Mostly Cloudy with Fog 34 1.1 33 0.6 97 97 SW 3 6 29.85 1011 0 0 0.00 0.00
9:53 am 09:53 Cloudy with Mist and Fog 37 2.8 37 2.8 100 100 Calm 29.84 1011 1 1 0.00 0.00
10:05 am 10:05 Cloudy with Mist and Fog 38 3.3 38 3.3 100 100 W 3 6 29.85 1011 2 3 0.00 0.00
10:07 am 10:07 Mostly Cloudy with Mist and Fog 38 3.3 38 3.3 100 100 Calm 29.85 1011 3 5 0.00 0.00
10:16 am 10:16 Mostly Cloudy with Mist and Fog 39 3.9 39 3.9 100 100 Calm 29.85 1011 6 10 0.00 0.00
10:53 am 10:53 Mostly Sunny 44 6.7 42 5.6 93 93 WSW 7 11 29.82 1010 10 16 0.00 0.00
11:53 am 11:53 Mostly Sunny 47 8.3 39 3.9 74 74 WSW 12 19 29.81 1009 10 16 0.00 0.00
12:53 pm 12:53 Cloudy 46 7.8 36 2.2 68 68 W 12 19 29.81 1009 10 16 0.00 0.00
1:53 pm 13:53 Cloudy 44 6.7 36 2.2 73 73 WNW 10 17 29.81 1010 10 16 0.01 0.25
2:53 pm 14:53 Cloudy with Light Rain 42 5.6 35 1.7 76 76 WNW 13 20 29.84 1011 10 16 0.00 0.03
3:53 pm 15:53 Cloudy 38 3.3 34 1.1 86 86 WNW 16 26 29.88 1012 10 16 0.00 0.03
4:04 pm 16:04 Cloudy with Light Rain 38 3.3 33 0.6 83 83 W 12 19 29.91 1013 10 16 0.00 0.03
4:53 pm 16:53 Cloudy 38 3.3 30 -1.1 73 73 W 6 9 29.91 1013 10 16 0.00 0.03
5:53 pm 17:53 Cloudy 37 2.8 31 -0.6 79 79 W 6 9 29.92 1013 10 16 0.00 0.00
6:53 pm 18:53 Cloudy 37 2.8 30 -1.1 76 76 W 8 13 29.95 1014 10 16 0.00 0.00
7:53 pm 19:53 Mostly Cloudy 36 2.2 30 -1.1 79 79 WSW 5 7 29.97 1015 10 16 0.00 0.00
8:53 pm 20:53 Mostly Cloudy 36 2.2 30 -1.1 79 79 SSW 3 6 29.98 1015 10 16 0.00 0.00
9:53 pm 21:53 Cloudy 37 2.8 30 -1.1 76 76 WSW 7 11 29.99 1016 10 16 0.00 0.00
10:37 pm 22:37 Cloudy 37 2.8 31 -0.6 79 79 WSW 9 15 30.00 1016 10 16 0.00 0.00
10:53 pm 22:53 Cloudy with Light Rain 37 2.8 32 0 82 82 W 13 20 30.00 1016 10 16 0.00 0.03
11:53 pm 23:53 Cloudy 36 2.2 31 -0.6 82 82 W 12 19 30.04 1017 10 16 0.00 0.03

Powered by AerisWeather